Погода в Усманке

Россия / Самарская область     52°49′31″N   51°41′51″E
темп.,
°C
ветер,
м/с
пор.,
м/с
влажн.,
%
обл.,
%
осадки,
мм/ч
давл.,
гПа
погр.,
м
4 марта, чт
чт401:00−7зсз5119599 0.3 1007369
04:00−11з599688 0.3 1008158
07:00−13зюз589769 0.0 1009137
10:00−8юз7139166 0.0 1009322
13:00−5юз9149388 0.1 1007557
16:00−3юз10169094 0.1 1005891
19:00−1зюз111895100 1.1 10031035
22:000зюз101696100 2.0 1003979
5 марта, пт
пт501:00−1зюз101592100 0.4 1003818
04:00−1зюз81490100 0.5 1003716
07:00−2юз81495100 0.3 1003577
10:00−1зюз81396100 1.9 1003667
13:000зюз611100100 0.9 1004612
16:000з5999100 2.0 1005438
19:00−3ссз4797100 1.5 1007341
22:00−7сз3394100 1.6 101135
6 марта, сб
сб601:00−9ссз2293100 0.0 101224
04:00−12с1292100 0.0 101321
07:00−12св1190100 0.0 101321
10:00−9в1186100 0.0 101366
13:00−7всв1181100 0.0 1011197
16:00−6с2286100 0.0 1010256
19:00−9ссз3492100 0.0 101087
22:00−11сз3697100 0.0 101199
7 марта, вс
вс701:00−14сз599899 0.1 1012178
04:00−17зсз4710098 0.1 1014120
07:00−20зсз4710087 0.0 1015108
10:00−18зсз469783 0.0 1017194
13:00−15з359239 0.0 1017219
16:00−14юз468920 0.0 1016216
19:00−16ю510860 0.0 1015159
22:00−13ююз8149042 0.0 1014317
8 марта, пн
пн801:00−10ююз101890100 0.1 1009606
04:00−6ююз101982100 0.1 1006771
07:00−5юз111891100 0.4 1003905
10:00−5юз111693100 1.1 1003921
13:00−3юз101492100 0.9 10031029
16:00−2зюз81385100 1.4 10041209
19:00−7зюз6158033 0.1 1006363
22:00−9зюз6128529 0.1 1008247